X

Important NEWS



New Hub Active

Miami is our new hub! Old members can request transfer via hr@dlxairways.net

Thank you very much and have nice flight.


Deluxe Airways.

X

Tours



Hello again, we created one nice test tour for all pilots to attend. also this is ment to be testing of our tour system

Available Tours

If you find some issues please inform us.

Thank you very much and have nice flight.


Deluxe Airways.

 METAR AND TAF INFORMATION
ArrayMETAR FOR LDZA
562286725 7 LDZA 140600Z 35005KT 290V050 CAVOK 16/06 Q1023 BECMG 04006KT LDZA 2021-06-14T06:00:00Z 45.72 16.07 16.0 6.0 350 5 6.21 30.206694 VFR METAR 103.0 LDZA 140530Z 33003KT 260V010 CAVOK 15/07 Q1023 BECMG 04006KT LDZA 2021-06-14T05:30:00Z 45.72 16.07 15.0 7.0 330 3 6.21 30.206694 VFR METAR 103.0 LDZA 140500Z 30003KT 230V350 CAVOK 14/08 Q1023 BECMG 04006KT LDZA 2021-06-14T05:00:00Z 45.72 16.07 14.0 8.0 300 3 6.21 30.206694 VFR METAR 103.0 LDZA 140430Z 00000KT CAVOK 11/08 Q1023 NOSIG LDZA 2021-06-14T04:30:00Z 45.72 16.07 11.0 8.0 0 0 6.21 30.206694 TRUE VFR METAR 103.0

 AIRPORT MAP

 RUNWAY INFORMATION
Runway 05 Runway length 10669 ft Runway width 148 ft
Runway elevation 353 ft Runway displaced threshold 0 ft Runway heading 47
Runway 23 Runway length 10669 ft Runway width 148 ft
Runway elevation 348 ft Runway displaced threshold 0 ft Runway heading 227

 AIRPORT FREQUENCIES
Type APP Name APP Frequency 120.7 MHZ
Type ATIS Name ATIS Frequency 124.375 MHZ
Type GND Name GND Frequency 121.85 MHZ
Type INFO Name INFO Frequency 124.85 MHZ
Type RDR Name RADAR Frequency 120.7 MHZ
Type TWR Name TWR Frequency 118.3 MHZ

 AIRPORT NEAR NAVIGATION AIDS
Type DME Name Iza Frequency 109500 KHZ
Type NDB Name Pisarovina Frequency 424 KHZ
Type NDB Name S.kKaljevec Frequency 350 KHZ
Type NDB Name Velika Gorica Frequency 325 KHZ
Type VOR-DME Name Zagreb Frequency 113700 KHZ
Type NDB Name Zagreb Frequency 367 KHZ



Powered by Virtual Airlines Manager [v2.6.2]

Template code change by DeluxeAir